| time (UTC) | temp C | wind direction | speed KPH | gust KPH | rain 1hr cm | rain 24hr cm | rain mn cm | humidity % | barometer mb |
| 20260502193506 | 14 | 50 | 1.6 | 3.2 | 0.00 | 1.14 | 1.14 | 84 | 1008.0 |
| 20260502193003 | 14 | 48 | 1.6 | 1.6 | 0.00 | 1.14 | 1.14 | 84 | 1008.1 |
| 20260502192458 | 14 | 46 | 0.0 | 1.6 | 0.00 | 1.14 | 1.14 | 85 | 1008.1 |
| 20260502191956 | 13 | 57 | 1.6 | 4.8 | 0.00 | 1.14 | 1.14 | 84 | 1008.2 |
| 20260502191453 | 13 | 50 | 1.6 | 3.2 | 0.00 | 1.14 | 1.14 | 85 | 1008.1 |
| 20260502190951 | 14 | 80 | 1.6 | 3.2 | 0.00 | 1.14 | 1.14 | 86 | 1008.2 |
| 20260502190448 | 13 | 43 | 0.0 | 1.6 | 0.00 | 1.14 | 1.14 | 86 | 1008.5 |
| 20260502185944 | 13 | 59 | 1.6 | 3.2 | 0.00 | 1.14 | 1.14 | 86 | 1008.3 |
| 20260502185440 | 13 | 41 | 0.0 | 3.2 | 0.00 | 1.14 | 1.14 | 86 | 1008.3 |
| 20260502184937 | 13 | 69 | 1.6 | 3.2 | 0.00 | 1.14 | 1.14 | 86 | 1008.4 |
| 20260502184432 | 13 | 67 | 1.6 | 1.6 | 0.00 | 1.14 | 1.14 | 86 | 1008.2 |
| 20260502183928 | 13 | 47 | 1.6 | 3.2 | 0.00 | 1.14 | 1.14 | 86 | 1008.4 |
| 20260502183425 | 14 | 49 | 0.0 | 3.2 | 0.00 | 1.14 | 1.14 | 86 | 1008.3 |
| 20260502182920 | 14 | 47 | 0.0 | 1.6 | 0.00 | 1.14 | 1.14 | 87 | 1008.5 |
| 20260502182416 | 13 | 53 | 1.6 | 3.2 | 0.00 | 1.14 | 1.14 | 87 | 1008.3 |
| 20260502181912 | 13 | 47 | 0.0 | 1.6 | 0.00 | 1.14 | 1.14 | 87 | 1008.3 |
| 20260502181411 | 13 | 45 | 0.0 | 1.6 | 0.00 | 1.14 | 1.14 | 87 | 1008.3 |
| 20260502180909 | 13 | 50 | 0.0 | 1.6 | 0.00 | 1.14 | 1.14 | 87 | 1008.5 |
| 20260502180406 | 13 | 63 | 1.6 | 4.8 | 0.00 | 1.14 | 1.14 | 87 | 1008.2 |
| 20260502170324 | 13 | 53 | 1.6 | 3.2 | 0.00 | 1.14 | 1.14 | 94 | 1008.1 |
| 20260502164312 | 13 | 49 | 0.0 | 1.6 | 0.00 | 1.14 | 1.14 | 95 | 1008.3 |
| 20260502163808 | 13 | 55 | 0.0 | 0.0 | 0.00 | 1.14 | 1.14 | 95 | 1008.5 |
| 20260502163304 | 13 | 50 | 1.6 | 1.6 | 0.00 | 1.14 | 1.14 | 95 | 1008.5 |
| 20260502162801 | 14 | 53 | 0.0 | 0.0 | 0.00 | 1.14 | 1.14 | 95 | 1008.3 |
| 20260502162258 | 14 | 52 | 0.0 | 0.0 | 0.00 | 1.14 | 1.14 | 95 | 1008.2 |
| 20260502161754 | 13 | 50 | 0.0 | 1.6 | 0.00 | 1.14 | 1.14 | 95 | 1008.6 |
| 20260502161246 | 14 | 55 | 1.6 | 1.6 | 0.13 | 1.14 | 1.14 | 95 | 1008.3 |
| 20260502160744 | 13 | 50 | 0.0 | 1.6 | 0.30 | 1.14 | 1.14 | 95 | 1008.0 |
| 20260502160243 | 13 | 55 | 1.6 | 3.2 | 0.18 | 1.12 | 1.12 | 95 | 1007.9 |
| 20260502152212 | 15 | 56 | 0.0 | 0.0 | 0.00 | 1.04 | 1.04 | 96 | 1008.6 |
| 20260502151709 | 15 | 56 | 0.0 | 1.6 | 0.00 | 1.04 | 1.04 | 96 | 1008.3 |
| 20260502151206 | 15 | 56 | 0.0 | 1.6 | 0.00 | 1.04 | 1.04 | 96 | 1007.9 |
| 20260502150704 | 15 | 55 | 0.0 | 0.0 | 0.00 | 1.04 | 1.04 | 96 | 1008.1 |
| 20260502150200 | 15 | 53 | 0.0 | 0.0 | 0.00 | 1.04 | 1.04 | 96 | 1008.0 |
| 20260502140124 | 15 | 47 | 0.0 | 0.0 | 0.18 | 0.94 | 0.94 | 96 | 1008.3 |
| 20260502130549 | 15 | 49 | 0.0 | 1.6 | 0.00 | 0.89 | 0.89 | 95 | 1007.6 |
| 20260502123532 | 15 | 32 | 0.0 | 0.0 | 0.13 | 0.86 | 0.86 | 95 | 1008.5 |
| 20260502123028 | 15 | 25 | 1.6 | 3.2 | 0.13 | 0.86 | 0.86 | 95 | 1008.6 |
| 20260502122525 | 15 | 26 | 3.2 | 4.8 | 0.18 | 0.84 | 0.84 | 95 | 1008.9 |
| 20260502122022 | 15 | 345 | 4.8 | 4.8 | 0.18 | 0.84 | 0.84 | 95 | 1008.6 |
| 20260502121520 | 15 | 43 | 0.0 | 1.6 | 0.13 | 0.81 | 0.81 | 95 | 1008.3 |
| 20260502121017 | 15 | 44 | 1.6 | 1.6 | 0.13 | 0.81 | 0.81 | 95 | 1008.3 |
| 20260502120513 | 15 | 49 | 0.0 | 0.0 | 0.18 | 0.79 | 0.79 | 94 | 1007.8 |
| 20260502115508 | 14 | 49 | 0.0 | 0.0 | 0.30 | 0.76 | 0.76 | 94 | 1007.7 |
| 20260502115004 | 15 | 49 | 0.0 | 0.0 | 0.18 | 0.74 | 0.74 | 94 | 1007.5 |
| 20260502114501 | 14 | 49 | 0.0 | 0.0 | 0.00 | 0.71 | 0.71 | 93 | 1007.1 |
| 20260502113957 | 14 | 49 | 0.0 | 0.0 | 0.00 | 0.71 | 0.71 | 93 | 1007.2 |
| 20260502113455 | 14 | 49 | 0.0 | 0.0 | 0.18 | 0.71 | 0.71 | 93 | 1006.9 |
| 20260502112954 | 14 | 49 | 0.0 | 0.0 | 0.30 | 0.71 | 0.71 | 93 | 1007.1 |
| 20260502112451 | 14 | 49 | 0.0 | 0.0 | 0.30 | 0.69 | 0.69 | 93 | 1007.0 |
| 20260502111948 | 14 | 49 | 0.0 | 0.0 | 0.30 | 0.66 | 0.66 | 93 | 1006.9 |
| 20260502111445 | 14 | 49 | 0.0 | 0.0 | 0.13 | 0.64 | 0.64 | 93 | 1007.1 |
| 20260502110943 | 14 | 49 | 0.0 | 0.0 | 0.18 | 0.61 | 0.61 | 93 | 1007.0 |
| 20260502110440 | 14 | 49 | 0.0 | 0.0 | 0.18 | 0.61 | 0.61 | 93 | 1006.8 |
| 20260502105937 | 14 | 49 | 0.0 | 0.0 | 0.00 | 0.58 | 0.58 | 92 | 1006.8 |
| 20260502105435 | 14 | 49 | 0.0 | 0.0 | 0.00 | 0.58 | 0.58 | 92 | 1006.6 |
| 20260502104933 | 14 | 49 | 0.0 | 0.0 | 0.00 | 0.58 | 0.58 | 92 | 1006.8 |
| 20260502104430 | 15 | 49 | 0.0 | 0.0 | 0.00 | 0.58 | 0.58 | 92 | 1006.3 |
| 20260502103927 | 14 | 49 | 0.0 | 0.0 | 0.00 | 0.58 | 0.58 | 91 | 1006.0 |
| 20260502103425 | 14 | 49 | 0.0 | 0.0 | 0.13 | 0.58 | 0.58 | 91 | 1006.4 |
| 20260502102921 | 14 | 49 | 0.0 | 0.0 | 0.30 | 0.58 | 0.58 | 91 | 1006.4 |
| 20260502102418 | 15 | 50 | 0.0 | 0.0 | 0.18 | 0.56 | 0.56 | 91 | 1006.4 |
| 20260502101915 | 15 | 50 | 0.0 | 0.0 | 0.13 | 0.53 | 0.53 | 91 | 1006.4 |
| 20260502101414 | 15 | 50 | 0.0 | 0.0 | 0.13 | 0.53 | 0.53 | 91 | 1006.6 |
| 20260502100911 | 15 | 49 | 0.0 | 0.0 | 0.18 | 0.51 | 0.51 | 91 | 1006.7 |
| 20260502100410 | 15 | 49 | 0.0 | 0.0 | 0.30 | 0.51 | 0.51 | 90 | 1006.6 |
| 20260502091343 | 15 | 50 | 0.0 | 0.0 | 0.18 | 0.33 | 0.33 | 89 | 1007.5 |
| 20260502090842 | 15 | 50 | 0.0 | 0.0 | 0.13 | 0.30 | 0.30 | 89 | 1007.5 |
| 20260502090338 | 15 | 50 | 0.0 | 0.0 | 0.13 | 0.30 | 0.30 | 89 | 1007.4 |
| 20260502071233 | 15 | 58 | 0.0 | 0.0 | 0.00 | 0.00 | 0.00 | 86 | 1007.5 |
| 20260502070731 | 15 | 59 | 0.0 | 0.0 | 0.00 | 0.00 | 0.00 | 86 | 1007.4 |
| 20260502070229 | 15 | 59 | 0.0 | 0.0 | 0.00 | 0.00 | 0.00 | 86 | 1007.5 |
| 20260502065727 | 15 | 59 | 0.0 | 1.6 | 0.00 | 0.00 | 0.00 | 85 | 1007.5 |
| 20260502065225 | 15 | 59 | 0.0 | 0.0 | 0.00 | 0.00 | 0.00 | 85 | 1007.5 |
| 20260502064723 | 15 | 59 | 0.0 | 0.0 | 0.00 | 0.00 | 0.00 | 85 | 1007.3 |
| 20260502064220 | 15 | 59 | 0.0 | 0.0 | 0.00 | 0.00 | 0.00 | 85 | 1007.4 |
| 20260502063718 | 15 | 59 | 0.0 | 0.0 | 0.00 | 0.00 | 0.00 | 85 | 1007.3 |
| 20260502063215 | 15 | 60 | 0.0 | 0.0 | 0.00 | 0.00 | 0.00 | 85 | 1007.3 |
| 20260502062712 | 15 | 60 | 0.0 | 0.0 | 0.00 | 0.00 | 0.00 | 85 | 1007.4 |
| 20260502062210 | 15 | 59 | 0.0 | 0.0 | 0.00 | 0.00 | 0.00 | 85 | 1007.2 |
| 20260502061708 | 15 | 60 | 0.0 | 0.0 | 0.00 | 0.00 | 0.00 | 85 | 1007.4 |
| 20260502061205 | 15 | 60 | 0.0 | 0.0 | 0.00 | 0.00 | 0.00 | 85 | 1007.3 |
| 20260502060700 | 15 | 60 | 0.0 | 0.0 | 0.00 | 0.00 | 0.00 | 85 | 1007.3 |
| 20260502060157 | 15 | 60 | 0.0 | 0.0 | 0.00 | 0.00 | 0.00 | 85 | 1007.3 |
| 20260502055655 | 15 | 60 | 0.0 | 0.0 | 0.00 | 0.00 | 0.00 | 84 | 1007.7 |
| 20260502055152 | 15 | 60 | 0.0 | 0.0 | 0.00 | 0.00 | 0.00 | 84 | 1007.6 |
| 20260502054652 | 15 | 60 | 0.0 | 0.0 | 0.00 | 0.00 | 0.00 | 84 | 1007.6 |
| 20260502054148 | 15 | 59 | 0.0 | 0.0 | 0.00 | 0.00 | 0.00 | 84 | 1007.6 |
| 20260502053646 | 15 | 60 | 0.0 | 0.0 | 0.00 | 0.00 | 0.00 | 84 | 1007.9 |
| 20260502053143 | 15 | 60 | 0.0 | 0.0 | 0.00 | 0.00 | 0.00 | 84 | 1007.8 |
| 20260502052641 | 15 | 60 | 0.0 | 0.0 | 0.00 | 0.00 | 0.00 | 83 | 1007.9 |
| 20260502052139 | 15 | 60 | 0.0 | 0.0 | 0.00 | 0.00 | 0.00 | 83 | 1007.9 |
| 20260502051637 | 15 | 59 | 0.0 | 0.0 | 0.00 | 0.00 | 0.00 | 83 | 1008.0 |
| 20260502051134 | 15 | 60 | 0.0 | 0.0 | 0.00 | 0.00 | 0.00 | 83 | 1008.1 |
| 20260502050630 | 15 | 60 | 0.0 | 0.0 | 0.00 | 0.00 | 0.00 | 82 | 1008.2 |
| 20260502050127 | 15 | 60 | 0.0 | 0.0 | 0.00 | 0.00 | 0.00 | 82 | 1008.0 |
| 20260502045624 | 15 | 60 | 0.0 | 0.0 | 0.00 | 0.00 | 0.00 | 82 | 1008.0 |
| 20260502045121 | 15 | 60 | 0.0 | 0.0 | 0.00 | 0.00 | 0.00 | 82 | 1007.8 |
| 20260502044617 | 15 | 60 | 1.6 | 1.6 | 0.00 | 0.00 | 0.00 | 82 | 1008.0 |
| 20260502044114 | 15 | 60 | 1.6 | 1.6 | 0.00 | 0.00 | 0.00 | 81 | 1007.9 |
| 20260502043612 | 15 | 60 | 0.0 | 0.0 | 0.00 | 0.00 | 0.00 | 81 | 1008.0 |
| 20260502043108 | 15 | 60 | 0.0 | 0.0 | 0.00 | 0.00 | 0.00 | 81 | 1008.0 |
| 20260502042603 | 15 | 60 | 0.0 | 1.6 | 0.00 | 0.00 | 0.00 | 81 | 1008.3 |
| 20260502042100 | 15 | 60 | 0.0 | 0.0 | 0.00 | 0.00 | 0.00 | 81 | 1008.0 |
| 20260502041558 | 16 | 60 | 0.0 | 1.6 | 0.00 | 0.00 | 0.00 | 81 | 1008.2 |
| 20260502041055 | 16 | 60 | 0.0 | 0.0 | 0.00 | 0.00 | 0.00 | 81 | 1008.3 |
| 20260502040551 | 16 | 60 | 0.0 | 0.0 | 0.00 | 0.00 | 0.00 | 81 | 1008.4 |
| 20260502040049 | 16 | 60 | 0.0 | 0.0 | 0.00 | 0.00 | 0.00 | 80 | 1008.5 |
| 20260502035544 | 16 | 60 | 0.0 | 0.0 | 0.00 | 0.00 | 0.00 | 80 | 1008.4 |
| 20260502035042 | 16 | 60 | 0.0 | 0.0 | 0.00 | 0.00 | 0.00 | 80 | 1008.3 |
| 20260502034540 | 16 | 60 | 0.0 | 0.0 | 0.00 | 0.00 | 0.00 | 79 | 1008.4 |
| 20260502034038 | 16 | 60 | 0.0 | 0.0 | 0.00 | 0.00 | 0.00 | 79 | 1008.6 |
| 20260502033536 | 16 | 60 | 0.0 | 0.0 | 0.00 | 0.00 | 0.00 | 79 | 1008.3 |
| 20260502033033 | 16 | 60 | 0.0 | 0.0 | 0.00 | 0.00 | 0.00 | 79 | 1008.4 |
| 20260502032529 | 16 | 60 | 0.0 | 0.0 | 0.00 | 0.00 | 0.00 | 79 | 1008.3 |
| 20260502032026 | 15 | 60 | 0.0 | 0.0 | 0.00 | 0.00 | 0.00 | 79 | 1008.4 |
| 20260502031524 | 15 | 60 | 0.0 | 0.0 | 0.00 | 0.00 | 0.00 | 79 | 1008.2 |
| 20260502031021 | 15 | 60 | 0.0 | 0.0 | 0.00 | 0.00 | 0.00 | 80 | 1008.1 |
| 20260502030520 | 15 | 60 | 0.0 | 0.0 | 0.00 | 0.00 | 0.00 | 80 | 1008.4 |
| 20260502030018 | 15 | 60 | 0.0 | 0.0 | 0.00 | 0.00 | 0.00 | 80 | 1008.5 |
| 20260502025515 | 15 | 60 | 0.0 | 0.0 | 0.00 | 0.00 | 0.00 | 80 | 1008.4 |
| 20260502025013 | 15 | 60 | 0.0 | 0.0 | 0.00 | 0.00 | 0.00 | 80 | 1008.4 |
| 20260502024510 | 15 | 51 | 0.0 | 1.6 | 0.00 | 0.00 | 0.00 | 80 | 1008.5 |
| 20260502024008 | 16 | 51 | 0.0 | 0.0 | 0.00 | 0.00 | 0.00 | 79 | 1008.4 |
| 20260502023505 | 16 | 51 | 0.0 | 0.0 | 0.00 | 0.00 | 0.00 | 79 | 1008.3 |
| 20260502023002 | 16 | 51 | 0.0 | 0.0 | 0.00 | 0.00 | 0.00 | 78 | 1008.3 |
| 20260502022459 | 16 | 51 | 0.0 | 0.0 | 0.00 | 0.00 | 0.00 | 78 | 1008.3 |
| 20260502021956 | 16 | 51 | 0.0 | 0.0 | 0.00 | 0.00 | 0.00 | 78 | 1008.4 |
| 20260502021454 | 16 | 51 | 0.0 | 0.0 | 0.00 | 0.00 | 0.00 | 78 | 1008.2 |
| 20260502020950 | 16 | 51 | 0.0 | 0.0 | 0.00 | 0.00 | 0.00 | 78 | 1008.2 |
| 20260502020449 | 16 | 51 | 0.0 | 0.0 | 0.00 | 0.00 | 0.00 | 79 | 1008.3 |
| 20260502015944 | 16 | 51 | 0.0 | 0.0 | 0.00 | 0.00 | 0.00 | 79 | 1008.3 |
| 20260502015443 | 16 | 57 | 0.0 | 0.0 | 0.00 | 0.00 | 0.00 | 79 | 1008.2 |
| 20260502014939 | 16 | 57 | 0.0 | 0.0 | 0.00 | 0.00 | 0.00 | 79 | 1008.1 |
| 20260502014436 | 16 | 57 | 0.0 | 0.0 | 0.00 | 0.00 | 0.00 | 78 | 1008.2 |
| 20260502013933 | 16 | 57 | 0.0 | 0.0 | 0.00 | 0.00 | 0.00 | 78 | 1008.0 |
| 20260502013428 | 16 | 57 | 1.6 | 1.6 | 0.00 | 0.00 | 0.00 | 77 | 1008.1 |
| 20260502012925 | 16 | 57 | 0.0 | 0.0 | 0.00 | 0.00 | 0.00 | 77 | 1008.1 |
| 20260502012422 | 16 | 57 | 0.0 | 0.0 | 0.00 | 0.00 | 0.00 | 76 | 1007.9 |
| 20260502011920 | 16 | 59 | 0.0 | 0.0 | 0.00 | 0.00 | 0.00 | 76 | 1007.9 |
| 20260502011415 | 16 | 59 | 0.0 | 0.0 | 0.00 | 0.00 | 0.00 | 76 | 1008.0 |
| 20260502010913 | 16 | 59 | 0.0 | 0.0 | 0.00 | 0.00 | 0.00 | 76 | 1007.8 |
| 20260502010409 | 16 | 59 | 0.0 | 1.6 | 0.00 | 0.00 | 0.00 | 77 | 1007.7 |
| 20260502005906 | 17 | 59 | 0.0 | 1.6 | 0.00 | 0.00 | 0.00 | 77 | 1007.5 |
| 20260502005404 | 17 | 59 | 0.0 | 1.6 | 0.00 | 0.00 | 0.00 | 76 | 1007.4 |
| 20260502004902 | 17 | 59 | 0.0 | 0.0 | 0.00 | 0.00 | 0.00 | 75 | 1007.6 |
| 20260502004357 | 17 | 59 | 0.0 | 0.0 | 0.00 | 0.00 | 0.00 | 74 | 1007.6 |
| 20260502003855 | 17 | 60 | 0.0 | 0.0 | 0.00 | 0.00 | 0.00 | 73 | 1007.3 |
| 20260502003352 | 17 | 60 | 0.0 | 0.0 | 0.00 | 0.00 | 0.00 | 73 | 1007.5 |
| 20260502002848 | 17 | 60 | 0.0 | 0.0 | 0.00 | 0.00 | 0.00 | 73 | 1007.4 |
| 20260502002345 | 17 | 61 | 0.0 | 0.0 | 0.00 | 0.00 | 0.00 | 72 | 1007.4 |
| 20260502001843 | 17 | 61 | 0.0 | 0.0 | 0.00 | 0.00 | 0.00 | 72 | 1007.5 |
| 20260502001340 | 17 | 61 | 0.0 | 0.0 | 0.00 | 0.00 | 0.00 | 72 | 1007.5 |
| 20260502000838 | 17 | 61 | 0.0 | 0.0 | 0.00 | 0.00 | 0.00 | 71 | 1007.4 |
| 20260502000336 | 17 | 61 | 0.0 | 0.0 | 0.00 | 0.00 | 0.00 | 71 | 1007.5 |
| 20260501235832 | 17 | 61 | 0.0 | 0.0 | 0.00 | 0.00 | 0.00 | 70 | 1007.2 |
| 20260501235327 | 17 | 61 | 0.0 | 0.0 | 0.00 | 0.00 | 0.00 | 69 | 1006.9 |
| 20260501234823 | 17 | 61 | 0.0 | 0.0 | 0.00 | 0.00 | 0.00 | 68 | 1006.9 |
| 20260501234320 | 18 | 61 | 0.0 | 0.0 | 0.00 | 0.00 | 0.00 | 68 | 1007.2 |
| 20260501233819 | 18 | 61 | 0.0 | 0.0 | 0.00 | 0.00 | 0.00 | 67 | 1007.1 |
| 20260501233316 | 18 | 61 | 0.0 | 0.0 | 0.00 | 0.00 | 0.00 | 66 | 1006.8 |
| 20260501232811 | 18 | 61 | 0.0 | 0.0 | 0.00 | 0.00 | 0.00 | 66 | 1006.8 |
| 20260501232308 | 18 | 61 | 0.0 | 0.0 | 0.00 | 0.00 | 0.00 | 65 | 1006.7 |
| 20260501231806 | 18 | 61 | 0.0 | 0.0 | 0.00 | 0.00 | 0.00 | 64 | 1006.7 |
| 20260501231304 | 18 | 61 | 0.0 | 0.0 | 0.00 | 0.00 | 0.00 | 64 | 1006.9 |
| 20260501230802 | 18 | 61 | 0.0 | 0.0 | 0.00 | 0.00 | 0.00 | 64 | 1006.7 |
| 20260501230300 | 18 | 62 | 0.0 | 0.0 | 0.00 | 0.00 | 0.00 | 64 | 1007.1 |
| 20260501225757 | 18 | 62 | 0.0 | 1.6 | 0.00 | 0.00 | 0.00 | 64 | 1007.1 |
| 20260501225255 | 19 | 62 | 0.0 | 1.6 | 0.00 | 0.00 | 0.00 | 63 | 1007.3 |
| 20260501224751 | 19 | 62 | 0.0 | 0.0 | 0.00 | 0.00 | 0.00 | 64 | 1007.4 |
| 20260501224249 | 19 | 62 | 0.0 | 0.0 | 0.00 | 0.00 | 0.00 | 64 | 1007.3 |
| 20260501223744 | 18 | 62 | 0.0 | 0.0 | 0.00 | 0.00 | 0.00 | 64 | 1007.3 |
| 20260501223241 | 18 | 62 | 0.0 | 0.0 | 0.00 | 0.00 | 0.00 | 64 | 1007.4 |
| 20260501222737 | 18 | 63 | 0.0 | 1.6 | 0.00 | 0.00 | 0.00 | 64 | 1007.2 |
| 20260501222234 | 18 | 67 | 0.0 | 1.6 | 0.00 | 0.00 | 0.00 | 63 | 1007.0 |
| 20260501221731 | 19 | 51 | 1.6 | 1.6 | 0.00 | 0.00 | 0.00 | 61 | 1007.3 |
| 20260501221229 | 19 | 46 | 0.0 | 3.2 | 0.00 | 0.00 | 0.00 | 60 | 1007.5 |
| 20260501220726 | 19 | 21 | 0.0 | 1.6 | 0.00 | 0.00 | 0.00 | 61 | 1007.7 |
| 20260501220223 | 19 | 17 | 0.0 | 1.6 | 0.00 | 0.00 | 0.00 | 61 | 1007.4 |
| 20260501215720 | 19 | 22 | 0.0 | 1.6 | 0.00 | 0.00 | 0.00 | 60 | 1007.6 |
| 20260501215215 | 19 | 14 | 1.6 | 3.2 | 0.00 | 0.00 | 0.00 | 60 | 1007.6 |
| 20260501214711 | 19 | 18 | 0.0 | 1.6 | 0.00 | 0.00 | 0.00 | 61 | 1007.6 |
| 20260501214207 | 19 | 14 | 1.6 | 3.2 | 0.00 | 0.00 | 0.00 | 60 | 1007.9 |
| 20260501213703 | 19 | 14 | 3.2 | 3.2 | 0.00 | 0.00 | 0.00 | 60 | 1007.8 |
| 20260501213159 | 19 | 26 | 0.0 | 1.6 | 0.00 | 0.00 | 0.00 | 60 | 1007.7 |
| 20260501212656 | 20 | 47 | 0.0 | 1.6 | 0.00 | 0.00 | 0.00 | 59 | 1007.6 |
| 20260501212153 | 19 | 38 | 1.6 | 3.2 | 0.00 | 0.00 | 0.00 | 62 | 1007.8 |
| 20260501211649 | 19 | 6 | 1.6 | 3.2 | 0.00 | 0.00 | 0.00 | 61 | 1007.8 |
| 20260501211147 | 19 | 26 | 0.0 | 1.6 | 0.00 | 0.00 | 0.00 | 60 | 1008.0 |
| 20260501210644 | 18 | 24 | 0.0 | 1.6 | 0.00 | 0.00 | 0.00 | 63 | 1007.7 |
| 20260501210141 | 18 | 4 | 1.6 | 3.2 | 0.00 | 0.00 | 0.00 | 61 | 1007.6 |
| 20260501205637 | 18 | 13 | 1.6 | 1.6 | 0.00 | 0.00 | 0.00 | 61 | 1007.7 |
| 20260501205134 | 18 | 26 | 1.6 | 1.6 | 0.00 | 0.00 | 0.00 | 61 | 1007.8 |
| 20260501204631 | 18 | 22 | 1.6 | 3.2 | 0.00 | 0.00 | 0.00 | 61 | 1007.6 |
| 20260501204127 | 19 | 28 | 0.0 | 1.6 | 0.00 | 0.00 | 0.00 | 59 | 1007.8 |
| 20260501203624 | 20 | 42 | 0.0 | 1.6 | 0.00 | 0.00 | 0.00 | 58 | 1007.9 |
| 20260501203121 | 19 | 42 | 0.0 | 3.2 | 0.00 | 0.00 | 0.00 | 58 | 1007.9 |
| 20260501202618 | 19 | 15 | 1.6 | 3.2 | 0.00 | 0.00 | 0.00 | 59 | 1008.0 |
| 20260501202115 | 19 | 51 | 0.0 | 1.6 | 0.00 | 0.00 | 0.00 | 57 | 1008.0 |
| 20260501201612 | 19 | 37 | 0.0 | 3.2 | 0.00 | 0.00 | 0.00 | 58 | 1008.2 |
| 20260501201108 | 20 | 26 | 1.6 | 1.6 | 0.00 | 0.00 | 0.00 | 58 | 1008.2 |
| 20260501200605 | 20 | 41 | 1.6 | 1.6 | 0.00 | 0.00 | 0.00 | 58 | 1008.2 |
| 20260501195600 | 18 | 19 | 1.6 | 1.6 | 0.00 | 0.00 | 0.00 | 60 | 1008.5 |
| 20260501195055 | 18 | 17 | 1.6 | 3.2 | 0.00 | 0.00 | 0.00 | 60 | 1008.3 |
| 20260501194551 | 18 | 15 | 1.6 | 3.2 | 0.00 | 0.00 | 0.00 | 59 | 1008.7 |
| 20260501194047 | 18 | 36 | 0.0 | 1.6 | 0.00 | 0.00 | 0.00 | 59 | 1008.8 |